Location: D�derode
(51.8092°N, 10.1065°E)
Time: 00:57:36
(UTC+00:00)

BREEZE-M DEB (TANK) - Pass Details

Date: 24 April 2021
Orbit: 314 x 13086 km, 49.6° (Epoch: 09 May)

Event Time Altitude Azimuth Distance (km) Brightness Sun altitude
Rises 20:43:05 0° 242° (WSW) 14,743 10.2 -16.9°
Reaches altitude 10° 20:59:39 10° 244° (WSW) 11,225 9.5 -18.5°
Maximum altitude 21:30:43 74° 168° (SSE) 2,110 5.5 -21.0°
Drops below altitude 10° 21:37:19 10° 84° (E) 2,822 6.2 -21.5°
Sets 21:38:51 0° 82° (E) 3,386 6.7 -21.6°
Enters shadow 21:39:00 -1° 82° (E) 3,442 6.7 -21.6°
